FLOCK 4V-13 (46297 NORAD) Tracking and Keplerian Element Data

This shows tracking and keplerian element data for the satellite.

Feedback or suggestion? Click here.




ElementValue
Catalog46297
NameFLOCK 4V-13
Epoch Orbit2192
Epoch Day26.87942146
Epoch Year2021
RAAN103.2855
Inclination97.5043
Eccentricity0.0002135
Argument of Perigee118.1453
Mean Anonmoly241.9993
Mean Motion15.10628721
Decay Rate6.22E-06
L11 46297U 20061AB 21026.87942146 .00000622 00000-0 41435-4 0 9990
L22 46297 97.5043 103.2855 0002135 118.1453 241.9993 15.10628721 21920

Live tracking and technical data element details for FLOCK 4V-13 (NORAD 46297). FLOCK 4V-13 can be tracked NOW for your location showing map with azimuth and elevation plus other details from your city location.

Track the satellite on the map from your city or location and see movement details for azimuth, elevation, latitude, longitude, range, height, and movement on the map or in text.







IsCatalogInMostPopularTable: catalog: 46297, numindb: 49
Update: records affected: 1



GetName: 46297 FLOCK 4V-13

Hit Count: updated at: Thu, 28 Jan 2021 11:52:57 GMT